Regional Weather Roundup
Issued by NWS Charleston, WV

Home | Current Version | Previous Version | Text Only | Print | Product List | Glossary On
Versions: 1 2 3 4 5 6 7 8 9 10 11 12 13 14 15 16 17 18 19 20 21 22 23 24 25 26 27 28 29 30 31 32 33 34 35 36 37 38 39 40 41 42 43 44 45 46 47 48 49 50
000
ASUS41 KRLX 240410
RWRRLX
West Virginia Regional Weather Roundup
National Weather Service Charleston WV
1200 AM EDT WED AUG 24 2016

Note: "fair" indicates few or no clouds below 12,000 feet with no
significant weather and/or obstructions to visibility.

WVZ003-240500-
Northern Panhandle of West Virginia

CITY           SKY/WX    TMP DP  RH WIND       PRES   REMARKS
WHEELING       CLEAR     68  59  73 CALM      30.27S
$$

WVZ009-240500-
Northwest West Virginia

CITY           SKY/WX    TMP DP  RH WIND       PRES   REMARKS
PARKERSBURG    CLOUDY    63  60  90 CALM      30.28F
$$

WVZ006-240500-
Western West Virginia

CITY           SKY/WX    TMP DP  RH WIND       PRES   REMARKS
HUNTINGTON     PTCLDY    66  63  90 E3        30.24F
$$

WVZ015-240500-
West Central West Virginia

CITY           SKY/WX    TMP DP  RH WIND       PRES   REMARKS
CHARLESTON     PTCLDY    66  64  93 CALM      30.26S
$$

WVZ022-031-240500-
North Central West Virginia

CITY           SKY/WX    TMP DP  RH WIND       PRES   REMARKS
CLARKSBURG     CLEAR     63  61  93 CALM      30.28S
MORGANTOWN     CLEAR     66  60  81 CALM      30.29F
$$

WVZ025-035-042-045-240500-
Southern West Virginia

CITY           SKY/WX    TMP DP  RH WIND       PRES   REMARKS
BECKLEY        CLOUDY    67  59  75 SE7       30.34S
LOGAN            N/A     68  63  83 CALM      30.28S
BLUEFIELD      CLEAR     68  58  70 S9        30.36F
LEWISBURG      PTCLDY    61  60  94 CALM      30.36R
$$

WVZ047-240500-
Northern Mountains of West Virginia

CITY           SKY/WX    TMP DP  RH WIND       PRES   REMARKS
ELKINS         CLEAR     60  57  89 CALM      30.35R
$$

WVZ052-240500-
Eastern Panhandle of West Virginia

CITY           SKY/WX    TMP DP  RH WIND       PRES   REMARKS
MARTINSBURG    CLEAR     65  62  90 CALM      30.29S
PETERSBURG     CLEAR     62  61  95 CALM      30.30S
$$




USA.gov is the U.S. government's official web portal to all federal, state and local government web resources and services.